Flag for U.S.A. Weather past 2 weeks in French Lick, Indiana, U.S.A.

Now
67 °F

Clear.


Feels Like: 67 °F
Forecast: 70 / 89 °F
Wind: No wind

Location: Monroe County Airport

Current Time: Aug 28, 2014 at 7:31:34 AM

Latest Report: Aug 28, 2014 at 6:53 AM


Visibility: 10 mi

Pressure: 30.06 "Hg

Humidity: 90%

Dew point: 64 °F

Location of French LickLocation

Historic Weather in French Lick — Graph

°F

French Lick temperature yesterday

Maximum temperature yesterday: 88 °F (at 4:53 PM)
Minimum temperature yesterday: 68 °F (at 6:01 AM)
Average temperature yesterday: 78 °F

Past Weeks' High & Low Weather Summary

 TemperatureHumidityPressure
High91 °F (Aug 25, 4:53 PM)97% (Aug 23, 1:53 AM)30.12 "Hg (Aug 23, 1:53 AM)
Low50 °F (Aug 15, 6:53 AM)33% (Aug 15, 12:53 PM)29.78 "Hg (Aug 19, 5:53 PM)
Average74 °F80%29.98 "Hg
* Reported Aug 13 5:53 AM — Aug 28 5:53 AM, French Lick, Weather by CustomWeather, © 2014

Note: Actual official high and low records may vary slightly from our data, if they occured in-between our weather recording intervals... More about our weather records

Advertising

French Lick weather history for previous 24 hours

 ConditionsComfort  
Time TempWeatherWind HumidityBarometerVisibility
5:53 AM
Aug 28
68 °FClear.3 mph87%30.05 "Hg10 mi
4:53 AM70 °FClear.No wind81%30.05 "Hg10 mi
3:53 AM71 °FClear.6 mph78%30.04 "Hg10 mi
2:53 AM72 °FPassing clouds.3 mph76%30.04 "Hg10 mi
1:53 AM73 °FClear.5 mph79%30.04 "Hg10 mi
12:53 AM74 °FClear.3 mph88%30.05 "Hg10 mi
11:53 PM
Aug 27
75 °FClear.6 mph88%30.05 "Hg10 mi
10:53 PM76 °FClear.7 mph88%30.05 "Hg10 mi
9:53 PM77 °FClear.3 mph88%30.06 "Hg10 mi
8:53 PM78 °FSunny.3 mph87%30.04 "Hg10 mi
7:53 PM81 °FSunny.7 mph79%30.02 "Hg10 mi
6:53 PM84 °FSunny.No wind72%30.02 "Hg10 mi
5:53 PM87 °FScattered clouds.6 mph65%30.02 "Hg10 mi
4:53 PM88 °FPassing clouds.6 mph61%30.03 "Hg10 mi
3:53 PM87 °FPassing clouds.5 mph61%30.05 "Hg10 mi
2:53 PM87 °FPassing clouds.6 mph63%30.06 "Hg10 mi
1:53 PM87 °FSunny.5 mph61%30.07 "Hg10 mi
12:53 PM87 °FSunny.3 mph57%30.08 "Hg10 mi
11:53 AM85 °FSunny.3 mph61%30.10 "Hg10 mi
10:53 AM83 °FPassing clouds.No wind65%30.09 "Hg10 mi
9:53 AM79 °FSunny.No wind74%30.08 "Hg10 mi
8:53 AM74 °FSunny.3 mph88%30.08 "Hg8 mi
7:53 AM69 °FFog.No wind96%30.09 "Hg4 mi
Weather by CustomWeather, © 2014

See weather overviewHow to use our weather pages